Location: Kellogg
(38.0159°N, 90.0546°W)
Time: 18:51:26
(UTC+00:00)

Envisat - Pass Details

Date: 15 August 2024
Orbit: 762 x 764 km, 98.3° (Epoch: 11 September)

Event Time Altitude Azimuth Distance (km) Brightness Sun altitude
Rises 08:42:14 0° 19° (NNE) 3,233 7.3 -26.3°
Reaches altitude 10° 08:44:39 10° 26° (NNE) 2,302 6.4 -26.0°
Maximum altitude 08:49:30 46° 99° (E) 1,022 3.8 -25.4°
Enters shadow 08:51:15 33° 147° (SSE) 1,263 4.0 -25.1°
